EZY42ZC EGPE-EGKK

Flight info

Callsign EZY42ZC
Flight time 1h 19m
Altitude 37000
Route GUSSI DCT NESDI DCT ERSON DCT DCS DCT ADZOP DCT EGTOC DCT KEPAD L151 DISIT
Aircraft A320/M-SDE3FGHIRWY/LB1

Departure

Time 2026-05-05 19:17
Airport Inverness Airport (EGPE)

Arrival

Time 2026-05-05 20:37
Airport London Gatwick Airport (EGKK)
Time Latitude Longitude Altitude Speed Heading
2026-05-05 18:55 57.53984 -4.06242 47 ft 0 kts 274°
2026-05-05 19:12 57.53983 -4.06234 47 ft 3 kts 273°
2026-05-05 19:12 57.53986 -4.06187 47 ft 4 kts 240°
2026-05-05 19:12 57.54003 -4.06158 46 ft 3 kts 188°
2026-05-05 19:12 57.54006 -4.06157 45 ft 0 kts 186°
2026-05-05 19:15 57.54005 -4.06157 45 ft 2 kts 186°
2026-05-05 19:15 57.53973 -4.06163 45 ft 6 kts 186°
2026-05-05 19:15 57.53934 -4.06169 47 ft 7 kts 185°
2026-05-05 19:16 57.53891 -4.06172 45 ft 11 kts 182°
2026-05-05 19:16 57.53806 -4.06179 47 ft 11 kts 176°
2026-05-05 19:16 57.53745 -4.06065 39 ft 16 kts 121°
2026-05-05 19:16 57.53734 -4.05867 35 ft 18 kts 53°
2026-05-05 19:17 57.53886 -4.05547 40 ft 65 kts 49°
2026-05-05 19:17 57.54337 -4.04565 37 ft 131 kts 50°
2026-05-05 19:17 57.55020 -4.03093 287 ft 157 kts 49°
2026-05-05 19:17 57.55730 -4.01559 988 ft 155 kts 50°
2026-05-05 19:18 57.56422 -4.00033 1728 ft 157 kts 52°
2026-05-05 19:18 57.56744 -3.97974 2013 ft 184 kts 95°
2026-05-05 19:18 57.56146 -3.95715 2279 ft 215 kts 136°
2026-05-05 19:18 57.54682 -3.94616 2636 ft 246 kts 175°
2026-05-05 19:19 57.52923 -3.94974 3256 ft 261 kts 193°
2026-05-05 19:19 57.51162 -3.95926 4149 ft 266 kts 198°
2026-05-05 19:19 57.49423 -3.97040 5107 ft 268 kts 199°
2026-05-05 19:19 57.47624 -3.98196 6021 ft 272 kts 200°
2026-05-05 19:20 57.45838 -3.99292 6873 ft 276 kts 199°
2026-05-05 19:20 57.43973 -4.00381 7758 ft 278 kts 199°
2026-05-05 19:20 57.42113 -4.01422 8613 ft 281 kts 199°
2026-05-05 19:20 57.40244 -4.02435 9430 ft 285 kts 199°
2026-05-05 19:21 57.38302 -4.03469 10245 ft 289 kts 200°
2026-05-05 19:21 57.36320 -4.04519 10632 ft 307 kts 199°
2026-05-05 19:21 57.34211 -4.05636 10855 ft 329 kts 199°
2026-05-05 19:21 57.31972 -4.06818 11395 ft 338 kts 199°
2026-05-05 19:22 57.29692 -4.08016 12083 ft 342 kts 199°
2026-05-05 19:22 57.27385 -4.09221 12787 ft 346 kts 199°
2026-05-05 19:22 57.25054 -4.10436 13488 ft 350 kts 200°
2026-05-05 19:22 57.22697 -4.11669 14124 ft 354 kts 200°
2026-05-05 19:23 57.20268 -4.12679 14739 ft 361 kts 192°
2026-05-05 19:23 57.17771 -4.13303 15378 ft 364 kts 192°
2026-05-05 19:23 57.15248 -4.13926 16006 ft 367 kts 192°
2026-05-05 19:23 57.12710 -4.14552 16619 ft 369 kts 192°
2026-05-05 19:24 57.10154 -4.15181 17248 ft 372 kts 192°
2026-05-05 19:24 57.07579 -4.15817 17874 ft 375 kts 192°
2026-05-05 19:24 57.04982 -4.16457 18472 ft 378 kts 192°
2026-05-05 19:24 57.02367 -4.17100 18945 ft 380 kts 192°
2026-05-05 19:25 56.99733 -4.17745 19498 ft 382 kts 192°
2026-05-05 19:25 56.97091 -4.18387 20049 ft 385 kts 192°
2026-05-05 19:25 56.94428 -4.19033 20620 ft 387 kts 192°
2026-05-05 19:25 56.91748 -4.19685 21162 ft 390 kts 192°
2026-05-05 19:26 56.89045 -4.20342 21718 ft 392 kts 192°
2026-05-05 19:26 56.86335 -4.21003 22245 ft 395 kts 192°
2026-05-05 19:26 56.83601 -4.21671 22762 ft 397 kts 192°
2026-05-05 19:26 56.80852 -4.22343 23276 ft 400 kts 192°
2026-05-05 19:27 56.78089 -4.23017 23748 ft 402 kts 192°
2026-05-05 19:27 56.75337 -4.23689 24132 ft 404 kts 192°
2026-05-05 19:27 56.72541 -4.24370 24540 ft 406 kts 192°
2026-05-05 19:27 56.69738 -4.25048 24939 ft 408 kts 192°
2026-05-05 19:28 56.66917 -4.25727 25332 ft 409 kts 192°
2026-05-05 19:28 56.64087 -4.26404 25719 ft 411 kts 192°
2026-05-05 19:28 56.61249 -4.27079 26099 ft 413 kts 192°
2026-05-05 19:28 56.58391 -4.27766 26464 ft 414 kts 192°
2026-05-05 19:29 56.55526 -4.28457 26838 ft 416 kts 192°
2026-05-05 19:29 56.52656 -4.29146 27204 ft 417 kts 192°
2026-05-05 19:29 56.49768 -4.29825 27529 ft 420 kts 189°
2026-05-05 19:29 56.46832 -4.29944 27833 ft 427 kts 180°
2026-05-05 19:30 56.43871 -4.29151 28170 ft 434 kts 170°
2026-05-05 19:30 56.40968 -4.27557 28483 ft 438 kts 166°
2026-05-05 19:30 56.38062 -4.25845 28802 ft 440 kts 166°
2026-05-05 19:30 56.35146 -4.24146 29124 ft 441 kts 166°
2026-05-05 19:31 56.32212 -4.22455 29417 ft 443 kts 166°
2026-05-05 19:31 56.29268 -4.20773 29713 ft 445 kts 166°
2026-05-05 19:31 56.26311 -4.19089 30007 ft 446 kts 166°
2026-05-05 19:31 56.23347 -4.17402 30252 ft 448 kts 166°
2026-05-05 19:32 56.20372 -4.15708 30472 ft 449 kts 166°
2026-05-05 19:32 56.17386 -4.14002 30681 ft 451 kts 166°
2026-05-05 19:32 56.14429 -4.12310 30894 ft 452 kts 166°
2026-05-05 19:32 56.11428 -4.10590 31088 ft 454 kts 166°
2026-05-05 19:33 56.08418 -4.08864 31366 ft 453 kts 166°
2026-05-05 19:33 56.05413 -4.07145 31645 ft 453 kts 166°
2026-05-05 19:33 56.02414 -4.05433 31921 ft 452 kts 166°
2026-05-05 19:33 55.99410 -4.03726 32196 ft 452 kts 166°
2026-05-05 19:34 55.96415 -4.02028 32474 ft 452 kts 166°
2026-05-05 19:34 55.93420 -4.00338 32752 ft 451 kts 166°
2026-05-05 19:34 55.90425 -3.98650 33028 ft 451 kts 166°
2026-05-05 19:35 55.84443 -3.95282 33592 ft 450 kts 166°
2026-05-05 19:35 55.81453 -3.93607 33870 ft 450 kts 166°
2026-05-05 19:35 55.78463 -3.91935 34113 ft 451 kts 166°
2026-05-05 19:35 55.75470 -3.90264 34337 ft 451 kts 166°
2026-05-05 19:36 55.72481 -3.88599 34564 ft 451 kts 166°
2026-05-05 19:36 55.69489 -3.86936 34779 ft 450 kts 166°
2026-05-05 19:36 55.66498 -3.85273 34989 ft 450 kts 166°
2026-05-05 19:36 55.63512 -3.83606 35197 ft 450 kts 166°
2026-05-05 19:37 55.60526 -3.81935 35396 ft 450 kts 166°
2026-05-05 19:37 55.57545 -3.80274 35591 ft 450 kts 166°
2026-05-05 19:37 55.54555 -3.78618 35789 ft 450 kts 166°
2026-05-05 19:37 55.51568 -3.76973 35975 ft 450 kts 166°
2026-05-05 19:38 55.48580 -3.75331 36147 ft 450 kts 166°
2026-05-05 19:38 55.45591 -3.73687 36281 ft 450 kts 166°
2026-05-05 19:38 55.42601 -3.72043 36473 ft 450 kts 166°
2026-05-05 19:38 55.39649 -3.70421 36615 ft 450 kts 166°
2026-05-05 19:39 55.36665 -3.68789 36780 ft 449 kts 166°
2026-05-05 19:39 55.33674 -3.67156 36952 ft 449 kts 166°
2026-05-05 19:39 55.30695 -3.65532 37075 ft 449 kts 166°
2026-05-05 19:40 55.24723 -3.62269 37104 ft 449 kts 166°
2026-05-05 19:40 55.18764 -3.59026 37096 ft 448 kts 166°
2026-05-05 19:41 55.12805 -3.55802 37090 ft 448 kts 166°
2026-05-05 19:41 55.06853 -3.52580 37086 ft 448 kts 166°
2026-05-05 19:42 55.00893 -3.49370 37082 ft 448 kts 166°
2026-05-05 19:42 54.94934 -3.46181 37063 ft 448 kts 166°
2026-05-05 19:43 54.88973 -3.42998 37067 ft 448 kts 166°
2026-05-05 19:43 54.83014 -3.39817 37072 ft 448 kts 166°
2026-05-05 19:44 54.77051 -3.36642 37067 ft 448 kts 166°
2026-05-05 19:44 54.71052 -3.33903 37067 ft 443 kts 176°
2026-05-05 19:45 54.64924 -3.32915 37055 ft 443 kts 178°
2026-05-05 19:45 54.58786 -3.31943 37054 ft 443 kts 178°
2026-05-05 19:46 54.52637 -3.30959 37058 ft 443 kts 178°
2026-05-05 19:46 54.46493 -3.29993 37062 ft 443 kts 178°
2026-05-05 19:47 54.40346 -3.29030 37050 ft 443 kts 178°
2026-05-05 19:47 54.34200 -3.28067 37054 ft 443 kts 178°
2026-05-05 19:48 54.28054 -3.27097 37055 ft 443 kts 177°
2026-05-05 19:48 54.21909 -3.26139 37058 ft 443 kts 178°
2026-05-05 19:49 54.15760 -3.25193 37044 ft 443 kts 177°
2026-05-05 19:49 54.09612 -3.24233 37048 ft 443 kts 177°
2026-05-05 19:50 54.03469 -3.23257 37053 ft 443 kts 177°
2026-05-05 19:50 53.97435 -3.21053 37052 ft 448 kts 161°
2026-05-05 19:51 53.91611 -3.17261 37045 ft 448 kts 161°
2026-05-05 19:51 53.85819 -3.13537 37054 ft 448 kts 161°
2026-05-05 19:52 53.80151 -3.09918 37072 ft 447 kts 161°
2026-05-05 19:52 53.74321 -3.06197 37073 ft 447 kts 161°
2026-05-05 19:53 53.68505 -3.02472 37057 ft 446 kts 161°
2026-05-05 19:53 53.62661 -2.98741 37052 ft 446 kts 161°
2026-05-05 19:54 53.56855 -2.95061 37057 ft 446 kts 161°
2026-05-05 19:54 53.51077 -2.91415 37053 ft 446 kts 161°
2026-05-05 19:55 53.45249 -2.87738 37052 ft 446 kts 161°
2026-05-05 19:55 53.39458 -2.84090 37063 ft 445 kts 161°
2026-05-05 19:56 53.33656 -2.80445 37047 ft 445 kts 161°
2026-05-05 19:56 53.28830 -2.77423 37053 ft 445 kts 161°
2026-05-05 19:57 53.23025 -2.73802 37045 ft 445 kts 162°
2026-05-05 19:57 53.17217 -2.70193 37040 ft 445 kts 161°
2026-05-05 19:58 53.11412 -2.66592 37029 ft 445 kts 161°
2026-05-05 19:58 53.05605 -2.63001 37027 ft 445 kts 161°
2026-05-05 19:59 52.99787 -2.59422 37033 ft 446 kts 162°
2026-05-05 19:59 52.93962 -2.55850 37019 ft 446 kts 161°
2026-05-05 19:59 52.91044 -2.54055 36885 ft 448 kts 161°
2026-05-05 20:00 52.88132 -2.52265 36622 ft 447 kts 161°
2026-05-05 20:00 52.85215 -2.50474 36232 ft 446 kts 161°
2026-05-05 20:00 52.82316 -2.48656 35518 ft 447 kts 158°
2026-05-05 20:00 52.79539 -2.46286 34672 ft 452 kts 148°
2026-05-05 20:01 52.76907 -2.43395 33817 ft 456 kts 147°
2026-05-05 20:01 52.74287 -2.40492 33282 ft 450 kts 147°
2026-05-05 20:01 52.71699 -2.37637 32712 ft 445 kts 147°
2026-05-05 20:01 52.69130 -2.34807 32159 ft 441 kts 147°
2026-05-05 20:02 52.66588 -2.32009 31608 ft 437 kts 147°
2026-05-05 20:02 52.64077 -2.29248 31076 ft 433 kts 147°
2026-05-05 20:02 52.61581 -2.26511 30545 ft 429 kts 147°
2026-05-05 20:02 52.59098 -2.23802 30010 ft 426 kts 147°
2026-05-05 20:03 52.56634 -2.21121 29451 ft 421 kts 147°
2026-05-05 20:03 52.54200 -2.18476 28943 ft 417 kts 148°
2026-05-05 20:03 52.51831 -2.15897 28446 ft 412 kts 148°
2026-05-05 20:03 52.49452 -2.13300 27953 ft 407 kts 148°
2026-05-05 20:04 52.47107 -2.10741 27489 ft 403 kts 148°
2026-05-05 20:04 52.44783 -2.08207 27013 ft 399 kts 148°
2026-05-05 20:04 52.42480 -2.05701 26562 ft 394 kts 148°
2026-05-05 20:04 52.40205 -2.03236 26116 ft 391 kts 148°
2026-05-05 20:05 52.37943 -2.00791 25680 ft 387 kts 149°
2026-05-05 20:05 52.35706 -1.98377 25243 ft 384 kts 149°
2026-05-05 20:05 52.33483 -1.95978 24806 ft 381 kts 149°
2026-05-05 20:05 52.31283 -1.93605 24375 ft 378 kts 149°
2026-05-05 20:06 52.29094 -1.91245 23945 ft 375 kts 149°
2026-05-05 20:06 52.26919 -1.88904 23482 ft 373 kts 149°
2026-05-05 20:06 52.24757 -1.86585 23016 ft 369 kts 149°
2026-05-05 20:06 52.22619 -1.84296 22584 ft 366 kts 149°
2026-05-05 20:07 52.20502 -1.82025 22144 ft 363 kts 149°
2026-05-05 20:07 52.18399 -1.79768 21714 ft 360 kts 148°
2026-05-05 20:07 52.16319 -1.77541 21280 ft 357 kts 148°
2026-05-05 20:07 52.14243 -1.75327 20845 ft 355 kts 149°
2026-05-05 20:08 52.12181 -1.73136 20401 ft 353 kts 148°
2026-05-05 20:08 52.10124 -1.70950 19974 ft 352 kts 148°
2026-05-05 20:08 52.08063 -1.68761 19672 ft 356 kts 148°
2026-05-05 20:08 52.05980 -1.66550 19362 ft 357 kts 148°
2026-05-05 20:09 52.03907 -1.64348 19054 ft 356 kts 148°
2026-05-05 20:09 52.01836 -1.62150 18715 ft 355 kts 148°
2026-05-05 20:09 51.99777 -1.59967 18406 ft 353 kts 148°
2026-05-05 20:09 51.97726 -1.57797 18068 ft 351 kts 148°
2026-05-05 20:10 51.95685 -1.55640 17755 ft 349 kts 148°
2026-05-05 20:10 51.93649 -1.53491 17454 ft 348 kts 148°
2026-05-05 20:10 51.91627 -1.51353 17145 ft 346 kts 148°
2026-05-05 20:10 51.89608 -1.49224 16840 ft 345 kts 148°
2026-05-05 20:11 51.87600 -1.47108 16531 ft 344 kts 148°
2026-05-05 20:11 51.85596 -1.44996 16237 ft 343 kts 148°
2026-05-05 20:11 51.83599 -1.42897 15939 ft 342 kts 148°
2026-05-05 20:11 51.81608 -1.40811 15648 ft 341 kts 148°
2026-05-05 20:12 51.79617 -1.38730 15339 ft 340 kts 148°
2026-05-05 20:12 51.77634 -1.36658 15045 ft 339 kts 148°
2026-05-05 20:12 51.75660 -1.34594 14814 ft 338 kts 148°
2026-05-05 20:12 51.73685 -1.32531 14629 ft 338 kts 148°
2026-05-05 20:13 51.71715 -1.30478 14431 ft 337 kts 148°
2026-05-05 20:13 51.69747 -1.28427 14239 ft 336 kts 148°
2026-05-05 20:13 51.67787 -1.26383 14051 ft 335 kts 148°
2026-05-05 20:13 51.65830 -1.24346 13858 ft 334 kts 148°
2026-05-05 20:14 51.63879 -1.22318 13653 ft 334 kts 148°
2026-05-05 20:14 51.61932 -1.20294 13449 ft 333 kts 148°
2026-05-05 20:14 51.59988 -1.18275 13262 ft 332 kts 148°
2026-05-05 20:14 51.58049 -1.16267 13059 ft 331 kts 148°
2026-05-05 20:15 51.56114 -1.14267 12873 ft 331 kts 147°
2026-05-05 20:15 51.54181 -1.12268 12682 ft 330 kts 147°
2026-05-05 20:15 51.52256 -1.10280 12489 ft 329 kts 147°
2026-05-05 20:15 51.50333 -1.08295 12300 ft 328 kts 147°
2026-05-05 20:16 51.48417 -1.06317 12114 ft 327 kts 147°
2026-05-05 20:16 51.46480 -1.04320 11917 ft 326 kts 147°
2026-05-05 20:16 51.44587 -1.02373 11734 ft 325 kts 147°
2026-05-05 20:16 51.42684 -1.00418 11541 ft 324 kts 147°
2026-05-05 20:17 51.40780 -0.98468 11356 ft 324 kts 147°
2026-05-05 20:17 51.38884 -0.96528 11152 ft 323 kts 147°
2026-05-05 20:17 51.36996 -0.94596 10974 ft 322 kts 147°
2026-05-05 20:17 51.35110 -0.92666 10776 ft 322 kts 147°
2026-05-05 20:18 51.33220 -0.90731 10603 ft 321 kts 147°
2026-05-05 20:18 51.31346 -0.88810 10427 ft 320 kts 146°
2026-05-05 20:18 51.29470 -0.86891 10242 ft 319 kts 147°
2026-05-05 20:18 51.27628 -0.85011 10085 ft 309 kts 147°
2026-05-05 20:19 51.25834 -0.83189 9855 ft 302 kts 147°
2026-05-05 20:19 51.24076 -0.81405 9768 ft 300 kts 147°
2026-05-05 20:19 51.22320 -0.79621 9605 ft 299 kts 147°
2026-05-05 20:19 51.20567 -0.77843 9434 ft 298 kts 147°
2026-05-05 20:20 51.18825 -0.76079 9254 ft 295 kts 146°
2026-05-05 20:20 51.17088 -0.74319 9135 ft 296 kts 146°
2026-05-05 20:20 51.15350 -0.72556 8974 ft 295 kts 146°
2026-05-05 20:20 51.13620 -0.70804 8800 ft 294 kts 146°
2026-05-05 20:21 51.11914 -0.69081 8628 ft 293 kts 146°
2026-05-05 20:21 51.10172 -0.67323 8460 ft 292 kts 146°
2026-05-05 20:21 51.08482 -0.65616 8287 ft 291 kts 146°
2026-05-05 20:21 51.06781 -0.63859 8113 ft 290 kts 141°
2026-05-05 20:22 51.05332 -0.61656 7939 ft 287 kts 126°
2026-05-05 20:22 51.04286 -0.58987 7777 ft 284 kts 114°
2026-05-05 20:22 51.03416 -0.56168 7602 ft 283 kts 114°
2026-05-05 20:22 51.02836 -0.54308 7491 ft 283 kts 114°
2026-05-05 20:23 51.01664 -0.50569 7268 ft 282 kts 114°
2026-05-05 20:23 51.00794 -0.47795 7109 ft 281 kts 114°
2026-05-05 20:23 50.99923 -0.45027 6937 ft 280 kts 114°
2026-05-05 20:23 50.99053 -0.42266 6779 ft 279 kts 114°
2026-05-05 20:24 50.98175 -0.39480 6608 ft 278 kts 114°
2026-05-05 20:24 50.97311 -0.36741 6455 ft 277 kts 114°
2026-05-05 20:24 50.96450 -0.34016 6287 ft 276 kts 114°
2026-05-05 20:24 50.95600 -0.31334 6127 ft 275 kts 114°
2026-05-05 20:25 50.94748 -0.28644 5963 ft 269 kts 114°
2026-05-05 20:25 50.93926 -0.26050 5814 ft 256 kts 114°
2026-05-05 20:25 50.93144 -0.23583 5688 ft 245 kts 114°
2026-05-05 20:25 50.92390 -0.21209 5525 ft 236 kts 114°
2026-05-05 20:26 50.91689 -0.18879 5327 ft 233 kts 104°
2026-05-05 20:26 50.91533 -0.16402 5113 ft 224 kts 78°
2026-05-05 20:26 50.92069 -0.14134 4957 ft 220 kts 53°
2026-05-05 20:26 50.93161 -0.12495 4797 ft 217 kts 28°
2026-05-05 20:27 50.94586 -0.11778 4663 ft 216 kts
2026-05-05 20:27 50.96082 -0.12118 4512 ft 223 kts 339°
2026-05-05 20:27 50.97367 -0.13510 4366 ft 228 kts 313°
2026-05-05 20:27 50.98125 -0.15715 4208 ft 232 kts 285°
2026-05-05 20:28 50.98417 -0.18278 4055 ft 234 kts 282°
2026-05-05 20:28 50.98725 -0.20818 3869 ft 231 kts 285°
2026-05-05 20:28 50.99106 -0.23305 3715 ft 233 kts 286°
2026-05-05 20:28 50.99511 -0.25782 3563 ft 232 kts 287°
2026-05-05 20:29 50.99922 -0.28256 3401 ft 231 kts 287°
2026-05-05 20:29 51.00331 -0.30726 3239 ft 231 kts 286°
2026-05-05 20:29 51.00734 -0.33196 3099 ft 231 kts 286°
2026-05-05 20:29 51.01133 -0.35664 3008 ft 230 kts 286°
2026-05-05 20:30 51.01532 -0.38135 3010 ft 231 kts 286°
2026-05-05 20:30 51.01929 -0.40608 3010 ft 231 kts 286°
2026-05-05 20:30 51.02324 -0.43080 3014 ft 231 kts 285°
2026-05-05 20:30 51.02717 -0.45550 3014 ft 231 kts 286°
2026-05-05 20:31 51.02977 -0.47185 3017 ft 231 kts 285°
2026-05-05 20:31 51.03372 -0.49661 3022 ft 231 kts 285°
2026-05-05 20:31 51.03795 -0.52113 3022 ft 230 kts 294°
2026-05-05 20:31 51.04794 -0.53989 3022 ft 224 kts 334°
2026-05-05 20:32 51.06291 -0.54439 3033 ft 222 kts
2026-05-05 20:32 51.07834 -0.54231 3019 ft 223 kts
2026-05-05 20:32 51.09306 -0.53569 3022 ft 221 kts 35°
2026-05-05 20:32 51.10243 -0.51677 3027 ft 222 kts 71°
2026-05-05 20:33 51.10615 -0.49278 3027 ft 224 kts 77°
2026-05-05 20:33 51.10936 -0.46858 3030 ft 222 kts 77°
2026-05-05 20:33 51.11264 -0.44487 3032 ft 219 kts 76°
2026-05-05 20:33 51.11595 -0.42131 2921 ft 215 kts 76°
2026-05-05 20:34 51.11919 -0.39823 2669 ft 212 kts 76°
2026-05-05 20:34 51.12236 -0.37558 2395 ft 206 kts 77°
2026-05-05 20:34 51.12541 -0.35383 2132 ft 195 kts 77°
2026-05-05 20:34 51.12823 -0.33365 1891 ft 180 kts 77°
2026-05-05 20:35 51.13081 -0.31514 1665 ft 161 kts 78°
2026-05-05 20:35 51.13311 -0.29863 1430 ft 146 kts 78°
2026-05-05 20:35 51.13527 -0.28312 1232 ft 139 kts 78°
2026-05-05 20:35 51.13737 -0.26827 1030 ft 137 kts 77°
2026-05-05 20:36 51.13931 -0.25349 817 ft 134 kts 79°
2026-05-05 20:36 51.14125 -0.23902 629 ft 134 kts 77°
2026-05-05 20:36 51.14336 -0.22474 431 ft 132 kts 78°
2026-05-05 20:36 51.14535 -0.21045 276 ft 131 kts 77°
2026-05-05 20:37 51.14723 -0.19687 207 ft 97 kts 77°
2026-05-05 20:37 51.14806 -0.19088 205 ft 26 kts 77°
2026-05-05 20:37 51.14851 -0.18765 202 ft 34 kts 77°
2026-05-05 20:37 51.14965 -0.18465 202 ft 25 kts 51°
2026-05-05 20:38 51.15045 -0.18306 209 ft 11 kts 51°
2026-05-05 20:38 51.15055 -0.18287 207 ft 0 kts 51°
2026-05-05 20:38 51.15055 -0.18286 207 ft 0 kts 51°
2026-05-05 20:38 51.15064 -0.18269 209 ft 6 kts 51°
2026-05-05 20:39 51.15089 -0.18218 203 ft 0 kts 51°
2026-05-05 20:40 51.15090 -0.18217 203 ft 2 kts 51°
2026-05-05 20:40 51.15117 -0.18163 205 ft 8 kts 69°
2026-05-05 20:40 51.15163 -0.18065 207 ft 15 kts
2026-05-05 20:40 51.15266 -0.18103 204 ft 16 kts 346°
2026-05-05 20:41 51.15374 -0.18139 212 ft 16 kts 348°
2026-05-05 20:41 51.15485 -0.18186 214 ft 17 kts 341°
2026-05-05 20:41 51.15600 -0.18227 204 ft 18 kts 348°
2026-05-05 20:41 51.15671 -0.18159 207 ft 14 kts 77°
2026-05-05 20:42 51.15699 -0.18044 216 ft 10 kts 36°
2026-05-05 20:42 51.15766 -0.18052 212 ft 8 kts 347°
2026-05-05 20:42 51.15806 -0.18025 209 ft 7 kts 73°
2026-05-05 20:42 51.15815 -0.17956 205 ft 5 kts 77°
2026-05-05 20:43 51.15817 -0.17944 204 ft 0 kts 78°
2026-05-05 20:43 51.15818 -0.17935 204 ft 0 kts 78°
2026-05-05 20:43 51.15819 -0.17928 207 ft 1 kts 77°
2026-05-05 20:44 51.15820 -0.17922 208 ft 0 kts 78°
2026-05-05 20:45 51.15818 -0.17930 206 ft 0 kts 78°
2026-05-05 20:45 51.15817 -0.17942 204 ft 0 kts 78°
2026-05-05 20:45 51.15820 -0.17922 208 ft 0 kts 78°
2026-05-05 20:46 51.15819 -0.17927 207 ft 0 kts 78°